QPF
0.03 0.04 0.07 0.04 0.04 0.05 0.05 0.03 0.03 0.05 0.07 0.06 0.07 0.08 0.09 0.07 0.06 0.06 0.06 0.06 0.06 0.06 0.07 0.08 0.08 0.06 0.06 0.06 0.06 0.05 0.04 0.03 0.04 0.04 0.03 0.04 0.05 0.06 0.06 0.05 0.04 0.03 0.04
0.02 0.03 0.05 0.04 0.03 0.04 0.04 0.05 0.06 0.06 0.06 0.06 0.09 0.10 0.07 0.05 0.05 0.05 0.06 0.08 0.08 0.08 0.10 0.11 0.10 0.06 0.06 0.05 0.05 0.04 0.04 0.03 0.03 0.03 0.03 0.04 0.05 0.06 0.06 0.07 0.07 0.05 0.05
0.01 0.02 0.04 0.03 0.03 0.03 0.04 0.06 0.08 0.09 0.08 0.10 0.10 0.06 0.04 0.06 0.07 0.06 0.07 0.08 0.08 0.09 0.12 0.14 0.11 0.08 0.06 0.06 0.06 0.05 0.05 0.04 0.04 0.04 0.04 0.03 0.03 0.06 0.08 0.09 0.09 0.08 0.05
0.01 0.01 0.02 0.03 0.03 0.03 0.04 0.07 0.09 0.09 0.10 0.08 0.05 0.04 0.04 0.06 0.07 0.05 0.05 0.07 0.08 0.12 0.14 0.16 0.10 0.07 0.05 0.05 0.05 0.05 0.04 0.05 0.04 0.04 0.03 0.03 0.02 0.05 0.09 0.08 0.07 0.08 0.05
0.01 0.01 0.02 0.04 0.03 0.06 0.15 0.13 0.07 0.05 0.06 0.05 0.06 0.05 0.04 0.05 0.04 0.04 0.06 0.07 0.09 0.14 0.15 0.11 0.08 0.07 0.07 0.05 0.05 0.05 0.05 0.06 0.07 0.05 0.02 0.02 0.03 0.04 0.07 0.07 0.06 0.06 0.05
0.01 0.02 0.04 0.05 0.07 0.16 0.15 0.05 0.03 0.03 0.03 0.05 0.07 0.07 0.06 0.05 0.04 0.06 0.07 0.09 0.10 0.14 0.10 0.07 0.07 0.06 0.07 0.04 0.05 0.04 0.05 0.06 0.06 0.03 0.02 0.01 0.01 0.03 0.05 0.05 0.05 0.05 0.05
0.02 0.04 0.06 0.07 0.10 0.11 0.05 0.03 0.02 0.02 0.03 0.04 0.05 0.06 0.06 0.05 0.05 0.06 0.07 0.09 0.11 0.08 0.07 0.06 0.05 0.04 0.07 0.07 0.07 0.06 0.07 0.06 0.03 0.02 0.01 0.01 0.01 0.03 0.04 0.03 0.03 0.03 0.04
0.02 0.04 0.05 0.06 0.07 0.06 0.04 0.04 0.04 0.03 0.04 0.04 0.04 0.05 0.06 0.06 0.06 0.07 0.07 0.08 0.08 0.06 0.05 0.05 0.05 0.04 0.06 0.06 0.06 0.06 0.05 0.04 0.01 0.01 0.00 0.00 0.01 0.02 0.04 0.04 0.02 0.03 0.03
0.02 0.04 0.04 0.04 0.05 0.06 0.04 0.04 0.04 0.05 0.07 0.05 0.05 0.06 0.06 0.07 0.07 0.08 0.08 0.08 0.09 0.07 0.05 0.04 0.03 0.04 0.07 0.06 0.06 0.06 0.04 0.04 0.01 0.02 0.01 0.01 0.01 0.02 0.05 0.05 0.03 0.03 0.03
0.03 0.04 0.04 0.04 0.04 0.05 0.04 0.04 0.04 0.05 0.11 0.11 0.07 0.09 0.08 0.08 0.07 0.08 0.09 0.11 0.12 0.10 0.07 0.06 0.06 0.08 0.10 0.08 0.07 0.07 0.06 0.03 0.02 0.01 0.01 0.01 0.01 0.02 0.05 0.05 0.04 0.03 0.04
0.03 0.03 0.05 0.06 0.05 0.05 0.04 0.04 0.05 0.06 0.10 0.10 0.07 0.09 0.09 0.05 0.05 0.07 0.09 0.12 0.13 0.12 0.11 0.10 0.10 0.11 0.12 0.09 0.08 0.08 0.06 0.03 0.01 0.01 0.01 0.02 0.02 0.03 0.05 0.07 0.06 0.03 0.03
0.02 0.04 0.06 0.05 0.03 0.03 0.03 0.04 0.05 0.06 0.09 0.07 0.04 0.06 0.07 0.04 0.03 0.04 0.07 0.12 0.16 0.16 0.15 0.15 0.14 0.13 0.11 0.08 0.07 0.08 0.05 0.03 0.02 0.01 0.01 0.02 0.02 0.04 0.06 0.07 0.07 0.06 0.06
0.02 0.04 0.03 0.03 0.03 0.03 0.04 0.04 0.03 0.04 0.13 0.12 0.05 0.05 0.05 0.04 0.04 0.06 0.06 0.08 0.11 0.13 0.14 0.16 0.17 0.14 0.12 0.10 0.08 0.05 0.04 0.03 0.02 0.01 0.02 0.02 0.03 0.05 0.06 0.07 0.07 0.07 0.07
0.01 0.01 0.01 0.02 0.02 0.02 0.03 0.04 0.03 0.04 0.18 0.18 0.07 0.06 0.06 0.03 0.03 0.03 0.04 0.04 0.05 0.07 0.11 0.16 0.13 0.11 0.11 0.11 0.08 0.05 0.06 0.06 0.04 0.03 0.03 0.03 0.03 0.07 0.09 0.09 0.07 0.07 0.09
0.02 0.02 0.02 0.02 0.02 0.01 0.01 0.01 0.01 0.04 0.10 0.09 0.05 0.05 0.04 0.02 0.02 0.02 0.03 0.03 0.04 0.06 0.08 0.10 0.12 0.09 0.10 0.09 0.08 0.06 0.05 0.06 0.06 0.05 0.04 0.05 0.05 0.06 0.10 0.12 0.10 0.09 0.09
0.02 0.02 0.01 0.01 0.01 0.01 0.01 0.02 0.02 0.03 0.02 0.03 0.03 0.03 0.04 0.05 0.07 0.05 0.05 0.05 0.04 0.05 0.05 0.05 0.05 0.05 0.10 0.11 0.12 0.08 0.04 0.03 0.04 0.04 0.05 0.05 0.06 0.06 0.09 0.11 0.13 0.14 0.14
0.02 0.02 0.02 0.01 0.01 0.01 0.01 0.01 0.01 0.01 0.01 0.02 0.02 0.02 0.05 0.08 0.11 0.10 0.10 0.08 0.08 0.07 0.05 0.04 0.03 0.05 0.08 0.08 0.08 0.06 0.04 0.03 0.02 0.03 0.04 0.04 0.04 0.05 0.06 0.08 0.11 0.14 0.17
0.01 0.02 0.01 0.01 0.01 0.02 0.03 0.03 0.03 0.03 0.04 0.03 0.02 0.02 0.05 0.06 0.07 0.10 0.09 0.09 0.08 0.06 0.06 0.05 0.04 0.04 0.05 0.06 0.05 0.04 0.04 0.03 0.02 0.02 0.03 0.04 0.04 0.04 0.05 0.06 0.08 0.10 0.11
0.01 0.01 0.01 0.01 0.01 0.01 0.03 0.06 0.05 0.04 0.03 0.02 0.02 0.01 0.03 0.05 0.05 0.05 0.07 0.09 0.11 0.09 0.08 0.08 0.07 0.06 0.06 0.07 0.07 0.06 0.05 0.04 0.02 0.02 0.03 0.05 0.06 0.04 0.04 0.05 0.06 0.07 0.09
0.01 0.01 0.01 0.01 0.01 0.02 0.04 0.06 0.05 0.04 0.03 0.02 0.02 0.03 0.03 0.04 0.04 0.03 0.04 0.04 0.05 0.05 0.08 0.10 0.11 0.06 0.04 0.07 0.09 0.10 0.08 0.05 0.03 0.03 0.03 0.05 0.04 0.03 0.03 0.03 0.03 0.05 0.06
0.01 0.01 0.01 0.01 0.02 0.03 0.06 0.08 0.05 0.04 0.03 0.02 0.02 0.02 0.02 0.02 0.02 0.02 0.03 0.04 0.03 0.04 0.05 0.05 0.05 0.03 0.02 0.04 0.07 0.09 0.09 0.05 0.03 0.03 0.03 0.03 0.03 0.03 0.03 0.02 0.03 0.03 0.04
0.01 0.02 0.02 0.02 0.04 0.08 0.12 0.08 0.06 0.04 0.03 0.03 0.02 0.01 0.02 0.03 0.03 0.03 0.03 0.02 0.03 0.05 0.05 0.04 0.03 0.03 0.03 0.03 0.06 0.07 0.07 0.05 0.03 0.02 0.03 0.04 0.03 0.03 0.03 0.03 0.04 0.05 0.06
0.02 0.03 0.03 0.04 0.05 0.06 0.05 0.03 0.02 0.02 0.02 0.02 0.02 0.02 0.02 0.03 0.04 0.04 0.04 0.03 0.03 0.04 0.04 0.04 0.04 0.03 0.03 0.03 0.05 0.06 0.05 0.06 0.04 0.03 0.03 0.05 0.05 0.03 0.03 0.03 0.04 0.04 0.04
0.03 0.03 0.03 0.02 0.04 0.05 0.07 0.08 0.04 0.02 0.02 0.01 0.02 0.02 0.02 0.03 0.03 0.04 0.05 0.04 0.04 0.03 0.03 0.04 0.03 0.03 0.03 0.03 0.04 0.04 0.03 0.04 0.05 0.05 0.03 0.05 0.06 0.05 0.03 0.03 0.03 0.03 0.03
0.02 0.02 0.02 0.01 0.03 0.05 0.07 0.08 0.05 0.03 0.02 0.02 0.01 0.01 0.01 0.02 0.02 0.02 0.03 0.04 0.04 0.04 0.04 0.05 0.04 0.03 0.03 0.02 0.03 0.03 0.03 0.03 0.04 0.05 0.05 0.04 0.05 0.06 0.05 0.03 0.03 0.02 0.02
0.02 0.01 0.01 0.01 0.02 0.02 0.03 0.05 0.04 0.03 0.03 0.03 0.03 0.02 0.02 0.01 0.02 0.04 0.04 0.03 0.04 0.06 0.07 0.06 0.04 0.04 0.04 0.03 0.03 0.04 0.05 0.05 0.06 0.06 0.06 0.06 0.07 0.07 0.08 0.06 0.05 0.03 0.03
MSLP
1002.11 1001.16 1000.53 1000.27 1000.31 1000.54 1000.82 1001.03 1001.08 1000.95 1000.68 1000.36 1000.12 1000.05 1000.19 1000.55 1001.08 1001.72 1002.38 1003.00 1003.57 1004.07 1004.55 1005.04 1005.57 1006.14 1006.75 1007.37 1007.97 1008.53 1009.04 1009.51 1009.96 1010.41 1010.87 1011.34 1011.79 1012.21 1012.58 1012.90 1013.16 1013.39 1013.63
1001.93 1001.02 1000.41 1000.14 1000.15 1000.32 1000.52 1000.63 1000.57 1000.33 999.98 999.61 999.34 999.26 999.42 999.82 1000.39 1001.06 1001.76 1002.41 1003.01 1003.55 1004.06 1004.58 1005.15 1005.76 1006.40 1007.05 1007.68 1008.27 1008.81 1009.33 1009.82 1010.31 1010.82 1011.32 1011.80 1012.24 1012.62 1012.93 1013.19 1013.42 1013.66
1001.65 1000.79 1000.21 999.95 999.93 1000.04 1000.14 1000.13 999.95 999.60 999.15 998.71 998.41 998.33 998.50 998.92 999.53 1000.24 1000.98 1001.68 1002.31 1002.89 1003.46 1004.03 1004.65 1005.31 1006.00 1006.69 1007.36 1007.99 1008.58 1009.14 1009.68 1010.22 1010.77 1011.31 1011.81 1012.26 1012.64 1012.95 1013.21 1013.44 1013.69
1001.31 1000.51 999.97 999.71 999.65 999.67 999.66 999.51 999.18 998.70 998.14 997.63 997.28 997.19 997.38 997.83 998.49 999.25 1000.04 1000.80 1001.50 1002.15 1002.78 1003.43 1004.11 1004.84 1005.59 1006.34 1007.07 1007.75 1008.39 1009.00 1009.59 1010.18 1010.76 1011.33 1011.85 1012.30 1012.68 1012.98 1013.23 1013.46 1013.71
1000.98 1000.23 999.73 999.45 999.33 999.24 999.08 998.77 998.27 997.63 996.95 996.35 995.96 995.86 996.08 996.58 997.29 998.13 998.99 999.84 1000.62 1001.36 1002.09 1002.83 1003.60 1004.41 1005.23 1006.05 1006.84 1007.58 1008.27 1008.93 1009.56 1010.19 1010.80 1011.38 1011.90 1012.35 1012.72 1013.01 1013.25 1013.47 1013.72
1000.72 1000.03 999.54 999.23 999.02 998.79 998.46 997.95 997.26 996.45 995.64 994.96 994.54 994.44 994.70 995.26 996.05 996.98 997.94 998.88 999.77 1000.62 1001.45 1002.29 1003.16 1004.05 1004.95 1005.84 1006.68 1007.48 1008.21 1008.91 1009.58 1010.23 1010.85 1011.44 1011.96 1012.40 1012.75 1013.02 1013.25 1013.47 1013.72
1000.60 999.95 999.46 999.10 998.77 998.39 997.86 997.14 996.25 995.28 994.34 993.60 993.16 993.08 993.39 994.03 994.92 995.94 997.01 998.05 999.05 1000.00 1000.93 1001.86 1002.81 1003.78 1004.75 1005.69 1006.59 1007.42 1008.19 1008.92 1009.61 1010.27 1010.89 1011.48 1011.99 1012.41 1012.75 1013.01 1013.22 1013.43 1013.68
1000.66 1000.03 999.53 999.11 998.67 998.12 997.40 996.48 995.41 994.28 993.25 992.46 992.02 991.98 992.35 993.08 994.04 995.16 996.31 997.44 998.52 999.55 1000.55 1001.55 1002.57 1003.59 1004.61 1005.59 1006.51 1007.37 1008.16 1008.90 1009.59 1010.25 1010.87 1011.45 1011.95 1012.37 1012.69 1012.95 1013.15 1013.36 1013.60
1000.89 1000.29 999.78 999.29 998.75 998.05 997.16 996.08 994.87 993.64 992.55 991.74 991.31 991.32 991.76 992.54 993.57 994.74 995.94 997.11 998.22 999.29 1000.33 1001.36 1002.41 1003.46 1004.49 1005.49 1006.42 1007.28 1008.07 1008.81 1009.49 1010.15 1010.76 1011.32 1011.82 1012.24 1012.57 1012.82 1013.04 1013.24 1013.47
1001.25 1000.69 1000.18 999.65 999.03 998.23 997.22 996.03 994.74 993.46 992.35 991.56 991.17 991.22 991.69 992.50 993.55 994.72 995.91 997.07 998.18 999.23 1000.26 1001.28 1002.32 1003.36 1004.39 1005.38 1006.30 1007.15 1007.93 1008.65 1009.32 1009.95 1010.55 1011.10 1011.60 1012.03 1012.37 1012.65 1012.87 1013.09 1013.32
1001.69 1001.17 1000.68 1000.14 999.48 998.63 997.58 996.36 995.05 993.79 992.71 991.96 991.61 991.69 992.17 992.97 993.98 995.09 996.22 997.31 998.34 999.34 1000.31 1001.29 1002.29 1003.31 1004.31 1005.27 1006.18 1007.00 1007.76 1008.44 1009.08 1009.69 1010.27 1010.82 1011.32 1011.76 1012.13 1012.44 1012.69 1012.92 1013.16
1002.13 1001.67 1001.22 1000.70 1000.05 999.21 998.19 997.01 995.76 994.57 993.57 992.89 992.58 992.67 993.12 993.86 994.78 995.78 996.79 997.77 998.69 999.59 1000.49 1001.40 1002.35 1003.32 1004.29 1005.22 1006.09 1006.89 1007.61 1008.26 1008.86 1009.44 1010.00 1010.53 1011.03 1011.49 1011.88 1012.22 1012.51 1012.77 1013.02
1002.53 1002.13 1001.73 1001.26 1000.66 999.89 998.95 997.88 996.76 995.69 994.81 994.20 993.94 994.02 994.42 995.05 995.84 996.70 997.56 998.39 999.19 999.97 1000.78 1001.62 1002.52 1003.44 1004.37 1005.27 1006.11 1006.87 1007.55 1008.16 1008.72 1009.26 1009.78 1010.29 1010.78 1011.25 1011.67 1012.04 1012.36 1012.65 1012.91
1002.86 1002.51 1002.16 1001.75 1001.24 1000.58 999.77 998.86 997.91 997.01 996.26 995.74 995.52 995.58 995.89 996.41 997.05 997.74 998.44 999.12 999.79 1000.47 1001.19 1001.97 1002.82 1003.70 1004.60 1005.47 1006.27 1007.00 1007.64 1008.20 1008.71 1009.20 1009.67 1010.15 1010.63 1011.09 1011.52 1011.92 1012.27 1012.58 1012.86
1003.13 1002.82 1002.51 1002.16 1001.74 1001.20 1000.56 999.83 999.07 998.36 997.75 997.34 997.14 997.18 997.41 997.80 998.29 998.83 999.37 999.92 1000.48 1001.08 1001.74 1002.46 1003.26 1004.12 1004.98 1005.82 1006.60 1007.29 1007.89 1008.41 1008.87 1009.29 1009.71 1010.14 1010.58 1011.03 1011.46 1011.87 1012.24 1012.56 1012.85
1003.38 1003.08 1002.79 1002.49 1002.15 1001.75 1001.27 1000.73 1000.17 999.63 999.18 998.85 998.69 998.70 998.86 999.14 999.50 999.91 1000.34 1000.78 1001.27 1001.80 1002.40 1003.09 1003.86 1004.68 1005.52 1006.33 1007.08 1007.74 1008.30 1008.77 1009.17 1009.54 1009.90 1010.27 1010.66 1011.07 1011.48 1011.88 1012.25 1012.58 1012.87
1003.64 1003.34 1003.06 1002.79 1002.52 1002.23 1001.89 1001.53 1001.15 1000.78 1000.46 1000.23 1000.10 1000.09 1000.20 1000.39 1000.65 1000.96 1001.31 1001.69 1002.12 1002.61 1003.18 1003.84 1004.57 1005.35 1006.16 1006.93 1007.64 1008.27 1008.79 1009.22 1009.58 1009.89 1010.19 1010.50 1010.83 1011.18 1011.56 1011.93 1012.28 1012.60 1012.88
1003.95 1003.64 1003.36 1003.12 1002.89 1002.68 1002.47 1002.26 1002.03 1001.80 1001.60 1001.45 1001.35 1001.34 1001.40 1001.54 1001.74 1001.99 1002.29 1002.63 1003.03 1003.49 1004.03 1004.65 1005.33 1006.07 1006.82 1007.55 1008.23 1008.81 1009.30 1009.70 1010.01 1010.28 1010.52 1010.77 1011.04 1011.33 1011.65 1011.98 1012.29 1012.58 1012.83
1004.29 1004.00 1003.72 1003.49 1003.30 1003.16 1003.05 1002.94 1002.84 1002.73 1002.62 1002.52 1002.46 1002.45 1002.49 1002.60 1002.77 1002.99 1003.27 1003.59 1003.97 1004.41 1004.91 1005.47 1006.10 1006.77 1007.46 1008.13 1008.75 1009.30 1009.76 1010.13 1010.42 1010.65 1010.84 1011.03 1011.24 1011.46 1011.71 1011.98 1012.24 1012.48 1012.69
1004.65 1004.37 1004.12 1003.90 1003.75 1003.67 1003.62 1003.60 1003.59 1003.57 1003.53 1003.48 1003.45 1003.44 1003.48 1003.58 1003.74 1003.95 1004.22 1004.54 1004.90 1005.30 1005.76 1006.26 1006.81 1007.40 1008.01 1008.61 1009.18 1009.69 1010.12 1010.47 1010.74 1010.95 1011.10 1011.24 1011.38 1011.54 1011.71 1011.90 1012.09 1012.26 1012.41
1004.93 1004.71 1004.49 1004.32 1004.21 1004.17 1004.19 1004.24 1004.29 1004.33 1004.34 1004.33 1004.32 1004.32 1004.36 1004.46 1004.61 1004.83 1005.10 1005.42 1005.76 1006.14 1006.54 1006.97 1007.44 1007.94 1008.45 1008.98 1009.49 1009.96 1010.37 1010.70 1010.96 1011.14 1011.27 1011.36 1011.43 1011.51 1011.60 1011.70 1011.80 1011.90 1011.98
1005.06 1004.93 1004.78 1004.66 1004.61 1004.62 1004.69 1004.79 1004.90 1004.98 1005.03 1005.05 1005.05 1005.06 1005.11 1005.21 1005.37 1005.60 1005.88 1006.19 1006.52 1006.86 1007.21 1007.58 1007.96 1008.36 1008.79 1009.24 1009.69 1010.12 1010.50 1010.82 1011.06 1011.22 1011.32 1011.36 1011.37 1011.36 1011.36 1011.36 1011.37 1011.38 1011.38
1004.98 1004.94 1004.89 1004.85 1004.86 1004.94 1005.07 1005.22 1005.38 1005.50 1005.58 1005.61 1005.63 1005.65 1005.70 1005.80 1005.97 1006.21 1006.49 1006.80 1007.13 1007.44 1007.75 1008.05 1008.36 1008.68 1009.03 1009.41 1009.80 1010.18 1010.53 1010.83 1011.05 1011.18 1011.24 1011.23 1011.16 1011.08 1010.98 1010.88 1010.79 1010.70 1010.62
1004.67 1004.73 1004.77 1004.82 1004.92 1005.07 1005.26 1005.48 1005.68 1005.84 1005.95 1006.01 1006.03 1006.06 1006.11 1006.22 1006.39 1006.63 1006.92 1007.24 1007.56 1007.86 1008.14 1008.39 1008.64 1008.90 1009.19 1009.50 1009.83 1010.16 1010.47 1010.73 1010.92 1011.02 1011.03 1010.96 1010.82 1010.65 1010.46 1010.26 1010.07 1009.90 1009.73
1004.17 1004.31 1004.44 1004.58 1004.76 1004.99 1005.26 1005.55 1005.81 1006.02 1006.16 1006.24 1006.28 1006.31 1006.37 1006.48 1006.65 1006.89 1007.19 1007.50 1007.82 1008.11 1008.37 1008.61 1008.82 1009.03 1009.26 1009.51 1009.79 1010.07 1010.33 1010.54 1010.69 1010.73 1010.69 1010.55 1010.35 1010.10 1009.82 1009.54 1009.26 1009.01 1008.77
1003.59 1003.77 1003.96 1004.18 1004.45 1004.76 1005.11 1005.47 1005.80 1006.06 1006.25 1006.36 1006.42 1006.46 1006.52 1006.62 1006.79 1007.03 1007.31 1007.63 1007.94 1008.23 1008.48 1008.69 1008.88 1009.06 1009.24 1009.45 1009.67 1009.89 1010.09 1010.25 1010.33 1010.33 1010.22 1010.03 1009.76 1009.44 1009.09 1008.74 1008.41 1008.09 1007.80
Thickness
5782 5784 5784 5783 5782 5780 5779 5779 5778 5778 5777 5777 5776 5775 5774 5773 5772 5771 5770 5770 5769 5768 5767 5767 5766 5765 5764 5764 5763 5762 5761 5761 5760 5759 5759 5759 5758 5757 5757 5756 5756 5755 5755
5785 5785 5783 5782 5781 5779 5778 5778 5777 5776 5776 5775 5775 5774 5773 5772 5771 5770 5769 5769 5768 5767 5766 5765 5765 5764 5763 5763 5762 5761 5760 5760 5759 5759 5758 5757 5757 5756 5756 5755 5754 5754 5754
5786 5784 5783 5781 5780 5779 5778 5777 5776 5775 5775 5774 5774 5773 5772 5771 5770 5769 5769 5768 5767 5766 5765 5764 5763 5763 5762 5762 5761 5760 5759 5759 5758 5758 5757 5756 5756 5755 5755 5754 5754 5753 5753
5786 5784 5782 5781 5779 5778 5776 5776 5775 5775 5774 5774 5773 5772 5771 5770 5769 5769 5768 5767 5766 5765 5764 5763 5762 5762 5761 5761 5760 5759 5759 5758 5757 5757 5756 5755 5755 5755 5754 5753 5753 5752 5751
5784 5783 5781 5780 5778 5777 5776 5775 5775 5774 5774 5773 5772 5771 5771 5770 5769 5768 5767 5766 5765 5764 5763 5762 5762 5761 5761 5760 5760 5759 5758 5757 5756 5756 5755 5755 5754 5754 5754 5753 5752 5751 5750
5783 5782 5780 5779 5778 5777 5775 5775 5774 5774 5773 5772 5771 5770 5769 5769 5768 5767 5766 5765 5764 5763 5762 5762 5761 5760 5760 5760 5759 5759 5758 5757 5756 5755 5755 5754 5754 5754 5754 5753 5752 5751 5750
5781 5780 5779 5778 5777 5775 5774 5774 5773 5773 5772 5771 5771 5770 5768 5767 5766 5766 5765 5764 5763 5762 5761 5761 5760 5760 5759 5759 5759 5758 5758 5757 5755 5755 5754 5754 5754 5753 5753 5753 5752 5751 5750
5780 5779 5778 5777 5775 5774 5773 5773 5772 5771 5770 5770 5769 5768 5767 5766 5766 5765 5764 5763 5762 5762 5761 5760 5760 5759 5759 5758 5758 5757 5756 5756 5755 5755 5754 5754 5753 5753 5753 5752 5751 5750 5749
5779 5777 5776 5775 5774 5773 5772 5772 5771 5771 5770 5769 5769 5767 5766 5765 5765 5764 5763 5762 5761 5761 5761 5760 5759 5759 5758 5758 5757 5756 5756 5755 5755 5754 5754 5754 5753 5752 5752 5752 5751 5750 5749
5777 5776 5775 5774 5773 5772 5771 5771 5770 5769 5768 5768 5767 5766 5765 5764 5764 5763 5762 5762 5761 5760 5760 5759 5759 5758 5758 5758 5757 5756 5755 5755 5754 5754 5754 5754 5753 5753 5752 5752 5751 5750 5749
5775 5774 5774 5773 5772 5771 5770 5769 5768 5767 5766 5765 5765 5764 5764 5763 5762 5762 5761 5761 5760 5760 5759 5759 5758 5758 5758 5757 5757 5756 5755 5755 5754 5754 5754 5754 5754 5753 5753 5752 5751 5750 5749
5772 5772 5773 5771 5771 5770 5769 5768 5767 5766 5764 5764 5763 5762 5762 5762 5761 5760 5760 5760 5760 5759 5759 5758 5758 5757 5757 5757 5756 5755 5755 5754 5754 5754 5754 5754 5754 5753 5753 5753 5752 5751 5750
5772 5772 5772 5771 5770 5769 5768 5767 5765 5764 5763 5762 5761 5760 5760 5760 5759 5758 5758 5758 5758 5758 5758 5758 5757 5757 5756 5756 5755 5755 5754 5754 5754 5754 5754 5754 5754 5754 5753 5753 5752 5751 5751
5772 5772 5772 5771 5770 5769 5767 5765 5764 5763 5762 5760 5759 5759 5758 5758 5757 5757 5756 5757 5757 5757 5757 5756 5756 5756 5756 5755 5755 5754 5754 5753 5753 5753 5754 5754 5754 5754 5753 5753 5752 5752 5751
5772 5772 5772 5771 5769 5768 5766 5764 5764 5762 5760 5759 5758 5758 5757 5756 5755 5755 5755 5755 5755 5755 5755 5755 5755 5755 5755 5754 5754 5754 5753 5753 5752 5753 5753 5754 5753 5753 5753 5753 5752 5752 5751
5772 5772 5772 5770 5769 5767 5765 5763 5762 5761 5760 5758 5757 5756 5756 5755 5754 5754 5753 5753 5753 5754 5753 5754 5753 5753 5753 5753 5753 5753 5752 5752 5752 5752 5752 5752 5753 5752 5752 5751 5751 5751 5751
5773 5772 5771 5770 5769 5766 5764 5763 5761 5760 5759 5757 5756 5755 5754 5753 5753 5752 5751 5751 5751 5751 5751 5751 5751 5751 5750 5750 5750 5750 5751 5750 5750 5750 5750 5750 5750 5750 5750 5750 5750 5749 5749
5773 5772 5771 5771 5768 5766 5763 5761 5760 5759 5757 5756 5754 5753 5752 5752 5751 5750 5749 5749 5749 5749 5749 5748 5748 5747 5747 5747 5747 5748 5748 5748 5748 5748 5748 5748 5748 5748 5748 5748 5748 5748 5747
5772 5771 5769 5768 5766 5764 5762 5760 5758 5757 5756 5755 5753 5752 5751 5750 5749 5748 5747 5746 5746 5746 5745 5746 5745 5744 5743 5743 5744 5745 5745 5745 5746 5746 5746 5745 5745 5745 5745 5745 5745 5745 5744
5772 5769 5767 5766 5764 5763 5760 5757 5755 5754 5753 5753 5752 5750 5749 5748 5747 5746 5745 5745 5744 5743 5742 5742 5741 5741 5740 5740 5741 5741 5741 5742 5742 5742 5742 5743 5742 5742 5742 5742 5742 5741 5741
5770 5767 5765 5763 5762 5760 5757 5753 5751 5750 5750 5750 5750 5749 5747 5746 5745 5744 5743 5742 5741 5740 5739 5738 5738 5736 5736 5736 5734 5734 5736 5737 5738 5738 5739 5739 5739 5739 5739 5739 5738 5738 5737
5769 5766 5764 5762 5761 5759 5757 5754 5752 5751 5749 5748 5748 5747 5745 5744 5743 5742 5740 5739 5738 5737 5736 5735 5734 5732 5731 5731 5729 5726 5725 5727 5732 5735 5734 5735 5735 5735 5735 5735 5735 5734 5734
5769 5767 5765 5762 5761 5759 5757 5755 5752 5749 5747 5745 5744 5744 5743 5741 5740 5739 5738 5737 5735 5734 5733 5732 5731 5729 5726 5726 5726 5723 5718 5717 5721 5726 5729 5730 5730 5730 5731 5731 5731 5730 5730
5770 5768 5765 5763 5761 5758 5756 5752 5748 5744 5741 5741 5741 5741 5740 5739 5737 5736 5735 5734 5732 5731 5729 5729 5728 5726 5724 5721 5721 5721 5721 5719 5716 5716 5721 5724 5725 5725 5725 5726 5726 5726 5726
5772 5768 5765 5762 5759 5756 5754 5750 5746 5743 5741 5740 5739 5738 5737 5736 5735 5733 5732 5730 5729 5727 5726 5725 5724 5723 5721 5719 5717 5716 5715 5714 5714 5711 5711 5715 5717 5719 5720 5720 5721 5721 5721
5771 5768 5764 5760 5756 5754 5752 5749 5745 5742 5739 5737 5736 5734 5733 5733 5732 5731 5729 5727 5725 5724 5722 5721 5720 5719 5717 5716 5715 5714 5712 5710 5709 5708 5706 5707 5708 5711 5714 5715 5716 5716 5716